Weather History for Sierra Vista, AZ

Change the Weather History Date:

Saturday, January 21, 2012

  Actual Average Record
Temperature  
Mean Temperature 55 °F -  
Max Temperature 68 °F 59 °F 73 °F (2009)
Min Temperature 42 °F 38 °F 20 °F (1990)
Degree Days  
Heating Degree Days 10    
Growing Degree Days 5 (Base 50)    
Moisture  
Dew Point 21 °F    
Average Humidity 27    
Maximum Humidity 38    
Minimum Humidity 13    
Precipitation  
Precipitation 0.00 in - - ()
Sea Level Pressure  
Sea Level Pressure 29.94 in    
Wind  
Wind Speed 11 mph (SW)    
Max Wind Speed 31 mph    
Max Gust Speed 43 mph    
Visibility 10 miles    
Events      
Averages and records for this station are not official NWS values.
T = Trace of Precipitation, MM = Missing Value Source: NWS Daily Summary

Daily Weather History Graph

Daily Weather History Graph

Search for Another Location

Airport:

Trip Planner

Search our weather history database for the weather conditions in past years. The results will help you decide how hot, cold, wet, or windy it might be!

Date:

Astronomy

Jan. 21, 2012 Rise Set
Actual Time 7:19 AM MST 5:45 PM MST
Civil Twilight 6:53 AM MST 6:11 PM MST
Nautical Twilight 6:24 AM MST 6:41 PM MST
Astronomical Twilight 5:55 AM MST 7:10 PM MST
Moon 5:50 AM MST (1/21) 4:27 PM MST (1/21)
Length of Visible Light 11h 17m
Length of Day
10h 25m
Waning Crescent, 3% of the Moon is Illuminated
Jan 21
Waning Crescent
Jan 23
New
Jan 30
First Quarter
Feb 7
Full
Feb 14
Last Quarter

Hourly Weather History & Observations

Time (MST) Temp. Windchill Dew Point Humidity Pressure Visibility Wind Dir Wind Speed Gust Speed Precip Events Conditions
12:56 AM 44.1 °F 40.1 °F 12.0 °F 27% 30.02 in 10.0 mi ESE 6.9 mph - N/A   Clear
1:56 AM 42.1 °F 36.1 °F 12.0 °F 29% 30.03 in 10.0 mi SSE 10.4 mph - N/A   Clear
2:56 AM 46.0 °F 41.9 °F 12.9 °F 26% 29.98 in 10.0 mi South 8.1 mph - N/A   Clear
3:56 AM 46.0 °F 41.9 °F 14.0 °F 28% 29.96 in 10.0 mi South 8.1 mph - N/A   Clear
4:56 AM 44.1 °F 39.0 °F 19.9 °F 38% 29.99 in 10.0 mi West 9.2 mph - N/A   Clear
5:56 AM 46.0 °F - 19.0 °F 34% 30.01 in 10.0 mi Calm Calm - N/A   Clear
6:55 AM 48.2 °F - 17.6 °F 30% 30.03 in 10.0 mi Calm Calm - N/A   Partly Cloudy
7:55 AM 46.4 °F 44.3 °F 19.4 °F 34% 30.04 in 10.0 mi SSE 4.6 mph - N/A   Scattered Clouds
8:55 AM 51.8 °F - 23.0 °F 33% 30.04 in 10.0 mi Calm Calm - N/A   Mostly Cloudy
9:55 AM 57.2 °F - 19.4 °F 23% 30.05 in 10.0 mi East 5.8 mph - N/A   Mostly Cloudy
10:55 AM 66.2 °F - 14.0 °F 13% 30.01 in 10.0 mi SW 8.1 mph - N/A   Mostly Cloudy
11:56 AM 64.9 °F - 18.0 °F 16% 29.96 in 10.0 mi SW 12.7 mph 20.7 mph N/A   Clear
12:56 PM 66.9 °F - 19.9 °F 17% 29.91 in 10.0 mi SW 15.0 mph 21.9 mph N/A   Clear
1:56 PM 68.0 °F - 26.1 °F 21% 29.88 in 10.0 mi WSW 17.3 mph 27.6 mph N/A   Clear
2:56 PM 66.9 °F - 30.0 °F 25% 29.87 in 10.0 mi WSW 26.5 mph 36.8 mph N/A   Clear
3:56 PM 66.0 °F - 27.0 °F 23% 29.86 in 10.0 mi WSW 19.6 mph 35.7 mph N/A   Clear
4:56 PM 63.0 °F - 24.1 °F 23% 29.87 in 10.0 mi West 16.1 mph - N/A   Mostly Cloudy
5:56 PM 60.1 °F - 26.1 °F 27% 29.88 in 10.0 mi WSW 19.6 mph 29.9 mph N/A   Clear
6:56 PM 59.0 °F - 27.0 °F 29% 29.88 in 10.0 mi WSW 17.3 mph 27.6 mph N/A   Clear
7:56 PM 57.9 °F - 32.0 °F 37% 29.86 in 10.0 mi WSW 27.6 mph 39.1 mph N/A   Clear
8:56 PM 57.9 °F - 30.9 °F 36% 29.86 in 10.0 mi WSW 31.1 mph 42.6 mph N/A   Clear
9:56 PM 55.0 °F - 28.0 °F 35% 29.86 in 10.0 mi WSW 28.8 mph 38.0 mph N/A   Clear
10:56 PM 55.0 °F - 21.0 °F 27% 29.84 in 10.0 mi West 31.1 mph 39.1 mph N/A   Clear
11:56 PM 54.0 °F - 19.0 °F 25% 29.85 in 10.0 mi WSW 31.1 mph 40.3 mph N/A   Clear